Change the Weather History Date:

Tuesday, April 17, 2012

  Actual Average (KVPZ) Record (KVPZ)
Temperature  
Mean Temperature 42 °F 50 °F  
Max Temperature 53 °F 60 °F 85 °F (2002)
Min Temperature 32 °F 39 °F 28 °F (2001)
Degree Days  
Heating Degree Days 22 15  
Month to date heating degree days 312  
Since 1 July heating degree days 5889  
Cooling Degree Days 0 0  
Month to date cooling degree days 0  
Year to date cooling degree days 0  
Moisture  
Dew Point 33 °F    
Average Humidity 68    
Maximum Humidity 100    
Minimum Humidity 44    
Precipitation  
Precipitation 0.00 in 0.13 in 0.74 in (2013)
Month to date precipitation 1.89  
Year to date precipitation 7.54  
Sea Level Pressure  
Sea Level Pressure 30.32 in    
Wind  
Wind Speed 2 mph ()    
Max Wind Speed 13 mph    
Max Gust Speed -    
Visibility 9.7 miles    
Events      
T = Trace of Precipitation, MM = Missing Value Source: Averaged Metar Reports

Daily Weather History Graph

Daily Weather History Graph

Search for Another Location

Airport or City:

Trip Planner

Search our weather history database for the weather conditions in past years. The results will help you decide how hot, cold, wet, or windy it might be!

Date:

Astronomy

Apr. 17, 2012 Rise Set
Actual Time 6:03 AM CDT 7:30 PM CDT
Civil Twilight 5:34 AM CDT 7:59 PM CDT
Nautical Twilight 4:59 AM CDT 8:34 PM CDT
Astronomical Twilight 4:22 AM CDT 9:11 PM CDT
Moon 4:02 AM CDT (4/17) 4:20 PM CDT (4/17)
Length of Visible Light 14h 25m
Length of Day
13h 27m
Waning Crescent, 12% of the Moon is Illuminated
Apr 17
Waning Crescent
Apr 21
New
Apr 29
First Quarter
May 5
Full
May 12
Last Quarter

Hourly Weather History & Observations

Time (CDT) Temp. Windchill Dew Point Humidity Pressure Visibility Wind Dir Wind Speed Gust Speed Precip Events Conditions
12:15 AM 42.8 °F - 35.6 °F 76% 30.23 in 10.0 mi Calm Calm - N/A   Clear
12:35 AM 41.0 °F - 35.6 °F 81% 30.24 in 10.0 mi Calm Calm - N/A   Clear
12:55 AM 37.4 °F - 33.8 °F 87% 30.23 in 10.0 mi Calm Calm - N/A   Clear
1:15 AM 35.6 °F 32.8 °F 32.0 °F 87% 30.24 in 10.0 mi West 3.5 mph - N/A   Clear
1:35 AM 35.6 °F - 32.0 °F 87% 30.24 in 10.0 mi Calm Calm - N/A   Clear
1:55 AM 33.8 °F - 32.0 °F 93% 30.24 in 10.0 mi Calm Calm - N/A   Clear
2:15 AM 35.6 °F - 32.0 °F 87% 30.23 in 10.0 mi Calm Calm - N/A   Clear
2:35 AM 33.8 °F - 32.0 °F 93% 30.24 in 10.0 mi Calm Calm - N/A   Clear
2:55 AM 35.6 °F - 33.8 °F 93% 30.24 in 10.0 mi Calm Calm - N/A   Clear
3:15 AM 35.6 °F - 33.8 °F 93% 30.24 in 10.0 mi Calm Calm - N/A   Scattered Clouds
3:35 AM 33.8 °F - 32.0 °F 93% 30.24 in 10.0 mi Calm Calm - N/A   Clear
3:55 AM 33.8 °F - 32.0 °F 93% 30.25 in 7.0 mi Calm Calm - N/A   Scattered Clouds
4:35 AM 33.8 °F - 32.0 °F 93% 30.25 in 10.0 mi Calm Calm - N/A   Overcast
4:55 AM 33.8 °F - 33.8 °F 100% 30.27 in 7.0 mi Calm Calm - N/A   Scattered Clouds
5:15 AM 33.8 °F - 32.0 °F 93% 30.28 in 7.0 mi Calm Calm - N/A   Clear
5:35 AM 33.8 °F - 32.0 °F 93% 30.29 in 7.0 mi Calm Calm - N/A   Clear
6:15 AM 33.8 °F - 32.0 °F 93% 30.30 in 7.0 mi Calm Calm - N/A   Clear
6:35 AM 32.0 °F 28.7 °F 32.0 °F 100% 30.31 in 5.0 mi NNE 3.5 mph - N/A   Clear
6:55 AM 33.8 °F - 32.0 °F 93% 30.33 in 10.0 mi Calm Calm - N/A   Clear
7:15 AM 37.4 °F 34.9 °F 37.4 °F 100% 30.34 in 10.0 mi ENE 3.5 mph - N/A   Clear
7:35 AM 41.0 °F 37.1 °F 35.6 °F 81% 30.34 in 10.0 mi ENE 5.8 mph - N/A   Clear
7:55 AM 41.0 °F 36.4 °F 35.6 °F 81% 30.35 in 10.0 mi ENE 6.9 mph - N/A   Clear
8:15 AM 42.8 °F 38.6 °F 33.8 °F 70% 30.36 in 10.0 mi ENE 6.9 mph - N/A   Clear
8:35 AM 42.8 °F 38.6 °F 33.8 °F 70% 30.36 in 10.0 mi ENE 6.9 mph - N/A   Clear
8:55 AM 44.6 °F 41.4 °F 33.8 °F 66% 30.36 in 10.0 mi ENE 5.8 mph - N/A   Scattered Clouds
9:15 AM 44.6 °F 41.4 °F 33.8 °F 66% 30.37 in 10.0 mi East 5.8 mph - N/A   Scattered Clouds
9:35 AM 44.6 °F 43.1 °F 33.8 °F 66% 30.37 in 10.0 mi NE 3.5 mph - N/A   Scattered Clouds
9:55 AM 46.4 °F 45.2 °F 33.8 °F 62% 30.38 in 10.0 mi NE 3.5 mph - N/A   Mostly Cloudy
10:15 AM 46.4 °F 44.3 °F 33.8 °F 62% 30.38 in 10.0 mi North 4.6 mph - N/A   Scattered Clouds
10:35 AM 46.4 °F - 33.8 °F 62% 30.38 in 10.0 mi Calm Calm - N/A   Scattered Clouds
10:55 AM 50.0 °F - 33.8 °F 54% 30.38 in 10.0 mi North 3.5 mph - N/A   Scattered Clouds
11:15 AM 50.0 °F - 33.8 °F 54% 30.38 in 10.0 mi Calm Calm - N/A   Mostly Cloudy
11:35 AM 51.8 °F - 33.8 °F 50% 30.38 in 10.0 mi Calm Calm - N/A   Scattered Clouds
11:55 AM 51.8 °F - 33.8 °F 50% 30.37 in 10.0 mi Calm Calm - N/A   Scattered Clouds
12:15 PM 51.8 °F - 33.8 °F 50% 30.36 in 10.0 mi NNE 4.6 mph - N/A   Mostly Cloudy
12:35 PM 50.0 °F - 32.0 °F 50% 30.36 in 10.0 mi ENE 4.6 mph - N/A   Scattered Clouds
12:55 PM 53.6 °F - 33.8 °F 47% 30.36 in 10.0 mi SSE 4.6 mph - N/A   Scattered Clouds
1:15 PM 51.8 °F - 32.0 °F 47% 30.36 in 10.0 mi Calm Calm - N/A   Mostly Cloudy
1:35 PM 51.8 °F - 33.8 °F 50% 30.36 in 10.0 mi Calm Calm - N/A   Overcast
1:55 PM 51.8 °F - 35.6 °F 54% 30.37 in 10.0 mi SW 4.6 mph - N/A   Overcast
2:15 PM 53.6 °F - 35.6 °F 51% 30.36 in 10.0 mi NNW 10.4 mph - N/A   Overcast
2:35 PM 53.6 °F - 33.8 °F 47% 30.33 in 10.0 mi North 12.7 mph - N/A   Scattered Clouds
2:55 PM 53.6 °F - 35.6 °F 51% 30.34 in 10.0 mi NNW 9.2 mph - N/A   Clear
3:15 PM 53.6 °F - 33.8 °F 47% 30.33 in 10.0 mi North 11.5 mph - N/A   Clear
3:35 PM 53.6 °F - 33.8 °F 47% 30.33 in 10.0 mi NNE 6.9 mph - N/A   Clear
3:55 PM 53.6 °F - 32.0 °F 44% 30.33 in 10.0 mi NNE 6.9 mph - N/A   Clear
4:15 PM 53.6 °F - 33.8 °F 47% 30.33 in 10.0 mi North 5.8 mph - N/A   Clear
4:55 PM 53.6 °F - 33.8 °F 47% 30.33 in 10.0 mi NNE 5.8 mph - N/A   Clear
5:15 PM 53.6 °F - 33.8 °F 47% 30.33 in 10.0 mi North 8.1 mph - N/A   Clear
5:35 PM 51.8 °F - 32.0 °F 47% 30.33 in 10.0 mi North 6.9 mph - N/A   Clear
5:55 PM 51.8 °F - 32.0 °F 47% 30.33 in 10.0 mi North 8.1 mph - N/A   Clear
6:15 PM 51.8 °F - 32.0 °F 47% 30.33 in 10.0 mi North 6.9 mph - N/A   Clear
6:35 PM 50.0 °F - 32.0 °F 50% 30.32 in 10.0 mi North 4.6 mph - N/A   Clear
6:55 PM 50.0 °F - 32.0 °F 50% 30.32 in 10.0 mi North 5.8 mph - N/A   Clear
7:15 PM 46.4 °F 42.9 °F 32.0 °F 57% 30.31 in 10.0 mi NE 6.9 mph - N/A   Clear
7:35 PM 46.4 °F 42.9 °F 32.0 °F 57% 30.31 in 10.0 mi NNE 6.9 mph - N/A   Clear
7:55 PM 44.6 °F 41.4 °F 32.0 °F 61% 30.31 in 10.0 mi NNE 5.8 mph - N/A   Clear
8:15 PM 42.8 °F 39.3 °F 32.0 °F 66% 30.31 in 10.0 mi NNE 5.8 mph - N/A   Clear
8:35 PM 42.8 °F 41.1 °F 32.0 °F 66% 30.31 in 10.0 mi NE 3.5 mph - N/A   Clear
8:55 PM 42.8 °F 41.1 °F 32.0 °F 66% 30.31 in 10.0 mi NNE 3.5 mph - N/A   Scattered Clouds
9:15 PM 41.0 °F 39.0 °F 32.0 °F 70% 30.31 in 10.0 mi NE 3.5 mph - N/A   Clear
9:35 PM 41.0 °F - 32.0 °F 70% 30.31 in 10.0 mi Calm Calm - N/A   Scattered Clouds
9:55 PM 41.0 °F 39.0 °F 32.0 °F 70% 30.31 in 10.0 mi NE 3.5 mph - N/A   Scattered Clouds
10:15 PM 41.0 °F 39.0 °F 32.0 °F 70% 30.31 in 10.0 mi NE 3.5 mph - N/A   Scattered Clouds
10:35 PM 41.0 °F 39.0 °F 32.0 °F 70% 30.31 in 10.0 mi NE 3.5 mph - N/A   Scattered Clouds
10:55 PM 41.0 °F 38.0 °F 32.0 °F 70% 30.31 in 10.0 mi ENE 4.6 mph - N/A   Clear
11:15 PM 39.2 °F 37.0 °F 32.0 °F 75% 30.31 in 10.0 mi NE 3.5 mph - N/A   Clear
11:35 PM 37.4 °F - 32.0 °F 81% 30.32 in 10.0 mi Calm Calm - N/A   Clear
11:55 PM 37.4 °F 34.9 °F 32.0 °F 81% 30.32 in 10.0 mi East 3.5 mph - N/A   Scattered Clouds